User: anonymous   Login
Location: Unspecified
(0.0000°N, 0.0000°E)
Time: 23:26:16
(UTC+00:00)
Language:

MICROSCOPE - Orbit

View from above orbital plane
View from above orbital plane
View from above satellite
View from above satellite

Ground track
Ground track

The orbit data is extracted from the following two-line orbital elements,

1 41457U 16025B   18294.56154046 +.00000104 +00000-0 +35274-4 0  9990
2 41457 098.2395 298.3470 0001254 125.3630 234.7684 14.53987305132021
Epoch (UTC): 21 October 2018 13:28:37
Eccentricity: 0.0001254
inclination: 98.2395°
perigee height: 712 km
apogee height: 713 km
right ascension of ascending node: 298.3470°
argument of perigee: 125.3630°
revolutions per day: 14.53987305
mean anomaly at epoch: 234.7684°
orbit number at epoch: 13202

The dashed part of the orbit path shows where the satellite is in the earth's shadow,  

DLR